AMV87B LYPG-LGKR

Flight info

Callsign AMV87B
Flight time 0h 44m
Altitude 29000
Route LEBGA N732 PITAS
Aircraft A320/M-SDE3FGHIRWY/LB1

Departure

Time 2026-05-09 12:59
Airport Podgorica Airport / Podgorica Golubovci Airbase (LYPG)

Arrival

Time 2026-05-09 13:43
Airport Corfu Ioannis Kapodistrias International Airport (LGKR)
Time Latitude Longitude Altitude Speed Heading
2026-05-09 12:34 42.36821 19.24770 121 ft 0 kts 259°
2026-05-09 12:51 42.36825 19.24794 120 ft 4 kts 260°
2026-05-09 12:51 42.36831 19.24828 116 ft 4 kts 240°
2026-05-09 12:51 42.36843 19.24845 116 ft 1 kts 185°
2026-05-09 12:51 42.36847 19.24845 117 ft 0 kts 185°
2026-05-09 12:53 42.36813 19.24841 119 ft 9 kts 185°
2026-05-09 12:54 42.36761 19.24834 120 ft 13 kts 185°
2026-05-09 12:54 42.36665 19.24831 117 ft 12 kts 166°
2026-05-09 12:54 42.36630 19.24920 117 ft 11 kts 95°
2026-05-09 12:54 42.36600 19.25003 116 ft 11 kts 160°
2026-05-09 12:55 42.36512 19.25000 116 ft 15 kts 184°
2026-05-09 12:55 42.36396 19.24988 115 ft 19 kts 184°
2026-05-09 12:55 42.36254 19.24973 112 ft 22 kts 184°
2026-05-09 12:55 42.36088 19.24956 110 ft 25 kts 184°
2026-05-09 12:56 42.35903 19.24939 107 ft 27 kts 184°
2026-05-09 12:56 42.35717 19.24919 102 ft 28 kts 184°
2026-05-09 12:56 42.35527 19.24900 101 ft 27 kts 184°
2026-05-09 12:56 42.35334 19.24882 99 ft 25 kts 184°
2026-05-09 12:57 42.35163 19.24863 95 ft 26 kts 184°
2026-05-09 12:57 42.34997 19.24845 92 ft 20 kts 185°
2026-05-09 12:57 42.34874 19.24838 92 ft 11 kts 170°
2026-05-09 12:57 42.34846 19.24915 90 ft 11 kts 95°
2026-05-09 12:58 42.34843 19.25027 90 ft 13 kts 77°
2026-05-09 12:58 42.34893 19.25081 91 ft 8 kts 11°
2026-05-09 12:58 42.35117 19.25104 96 ft 71 kts
2026-05-09 12:58 42.35850 19.25178 104 ft 137 kts
2026-05-09 12:59 42.36927 19.25288 463 ft 162 kts
2026-05-09 12:59 42.38061 19.25395 1208 ft 164 kts
2026-05-09 12:59 42.39196 19.25525 1999 ft 163 kts
2026-05-09 12:59 42.40387 19.25657 2488 ft 182 kts
2026-05-09 13:00 42.41715 19.25786 2999 ft 199 kts
2026-05-09 13:00 42.43154 19.25708 3460 ft 217 kts 342°
2026-05-09 13:00 42.44393 19.24522 4125 ft 224 kts 302°
2026-05-09 13:00 42.44788 19.22512 5070 ft 226 kts 264°
2026-05-09 13:01 42.44153 19.20589 5996 ft 231 kts 226°
2026-05-09 13:01 42.42742 19.19557 6786 ft 237 kts 193°
2026-05-09 13:01 42.41100 19.19171 7614 ft 242 kts 187°
2026-05-09 13:01 42.39408 19.18916 8430 ft 247 kts 186°
2026-05-09 13:02 42.37691 19.18655 9311 ft 250 kts 187°
2026-05-09 13:02 42.35962 19.18344 10203 ft 252 kts 189°
2026-05-09 13:02 42.34204 19.18014 10895 ft 263 kts 185°
2026-05-09 13:02 42.32294 19.17829 11293 ft 287 kts 185°
2026-05-09 13:03 42.30215 19.17633 11652 ft 311 kts 185°
2026-05-09 13:03 42.27975 19.17426 11993 ft 334 kts 185°
2026-05-09 13:03 42.25608 19.17210 12618 ft 346 kts 185°
2026-05-09 13:03 42.23191 19.16988 13401 ft 351 kts 185°
2026-05-09 13:04 42.20733 19.16761 14171 ft 356 kts 186°
2026-05-09 13:04 42.18247 19.16529 14825 ft 361 kts 186°
2026-05-09 13:04 42.15719 19.16294 15519 ft 366 kts 186°
2026-05-09 13:04 42.13159 19.16060 16214 ft 371 kts 186°
2026-05-09 13:05 42.10602 19.15829 16910 ft 376 kts 186°
2026-05-09 13:05 42.07978 19.15594 17618 ft 380 kts 186°
2026-05-09 13:05 42.05324 19.15356 18323 ft 385 kts 186°
2026-05-09 13:05 42.02639 19.15112 18922 ft 389 kts 187°
2026-05-09 13:06 41.99924 19.14867 19539 ft 393 kts 187°
2026-05-09 13:06 41.97183 19.14617 20135 ft 397 kts 187°
2026-05-09 13:06 41.94418 19.14364 20740 ft 400 kts 188°
2026-05-09 13:06 41.91626 19.14111 21327 ft 404 kts 188°
2026-05-09 13:07 41.88813 19.13859 21900 ft 407 kts 188°
2026-05-09 13:07 41.85972 19.13602 22466 ft 411 kts 188°
2026-05-09 13:07 41.83111 19.13344 23024 ft 414 kts 188°
2026-05-09 13:07 41.80220 19.13087 23570 ft 418 kts 189°
2026-05-09 13:08 41.77303 19.12826 23975 ft 423 kts 189°
2026-05-09 13:08 41.74346 19.12561 24387 ft 428 kts 189°
2026-05-09 13:08 41.71364 19.12290 24807 ft 432 kts 190°
2026-05-09 13:08 41.68354 19.12018 25231 ft 435 kts 190°
2026-05-09 13:09 41.65321 19.11745 25634 ft 439 kts 191°
2026-05-09 13:09 41.62255 19.11469 26038 ft 443 kts 191°
2026-05-09 13:09 41.59170 19.11190 26433 ft 446 kts 191°
2026-05-09 13:09 41.56063 19.10909 26863 ft 449 kts 191°
2026-05-09 13:10 41.52936 19.10627 27289 ft 452 kts 191°
2026-05-09 13:10 41.49790 19.10348 27722 ft 455 kts 190°
2026-05-09 13:10 41.46590 19.10453 28139 ft 467 kts 180°
2026-05-09 13:10 41.43365 19.11271 28547 ft 478 kts 170°
2026-05-09 13:11 41.40199 19.12731 28930 ft 485 kts 165°
2026-05-09 13:11 41.37031 19.14295 29058 ft 484 kts 165°
2026-05-09 13:11 41.33926 19.15827 29079 ft 467 kts 165°
2026-05-09 13:12 41.27925 19.18769 29078 ft 456 kts 166°
2026-05-09 13:12 41.21977 19.21651 29078 ft 454 kts 166°
2026-05-09 13:13 41.16037 19.24524 29078 ft 454 kts 166°
2026-05-09 13:13 41.10138 19.27381 29076 ft 454 kts 166°
2026-05-09 13:14 41.04204 19.30252 29072 ft 454 kts 166°
2026-05-09 13:16 40.80523 19.41662 29061 ft 452 kts 166°
2026-05-09 13:16 40.74616 19.44491 29060 ft 451 kts 166°
2026-05-09 13:17 40.68714 19.47313 29048 ft 451 kts 166°
2026-05-09 13:17 40.62814 19.50126 29049 ft 451 kts 166°
2026-05-09 13:18 40.56912 19.52944 29046 ft 451 kts 166°
2026-05-09 13:18 40.51007 19.55752 29047 ft 451 kts 166°
2026-05-09 13:19 40.45103 19.58550 28875 ft 450 kts 166°
2026-05-09 13:19 40.42165 19.59944 28607 ft 448 kts 166°
2026-05-09 13:19 40.39245 19.61329 28336 ft 445 kts 166°
2026-05-09 13:19 40.36354 19.62703 27875 ft 440 kts 166°
2026-05-09 13:20 40.33482 19.64062 27357 ft 437 kts 166°
2026-05-09 13:20 40.30624 19.65405 26854 ft 435 kts 166°
2026-05-09 13:20 40.27786 19.66739 26323 ft 432 kts 166°
2026-05-09 13:20 40.24973 19.68059 25852 ft 429 kts 167°
2026-05-09 13:21 40.22165 19.69375 25321 ft 427 kts 166°
2026-05-09 13:21 40.19374 19.70690 24797 ft 426 kts 166°
2026-05-09 13:21 40.16591 19.72004 24266 ft 425 kts 166°
2026-05-09 13:21 40.13813 19.73311 23706 ft 424 kts 166°
2026-05-09 13:22 40.11078 19.74593 23097 ft 423 kts 166°
2026-05-09 13:22 40.08311 19.75888 22546 ft 421 kts 166°
2026-05-09 13:22 40.05559 19.77177 21981 ft 420 kts 166°
2026-05-09 13:23 39.94651 19.82275 19841 ft 413 kts 165°
2026-05-09 13:23 39.91957 19.83529 19339 ft 411 kts 165°
2026-05-09 13:24 39.89253 19.84596 19001 ft 400 kts 173°
2026-05-09 13:24 39.86531 19.85227 18507 ft 394 kts 175°
2026-05-09 13:24 39.83851 19.85827 17808 ft 385 kts 175°
2026-05-09 13:24 39.81272 19.86402 17383 ft 368 kts 175°
2026-05-09 13:25 39.78793 19.86954 16969 ft 354 kts 175°
2026-05-09 13:25 39.76405 19.87483 16574 ft 343 kts 175°
2026-05-09 13:25 39.71810 19.88492 15788 ft 331 kts 175°
2026-05-09 13:26 39.69536 19.88985 15394 ft 332 kts 175°
2026-05-09 13:26 39.67257 19.89479 15005 ft 333 kts 175°
2026-05-09 13:26 39.64965 19.89978 14624 ft 335 kts 175°
2026-05-09 13:26 39.62663 19.90481 14227 ft 336 kts 176°
2026-05-09 13:27 39.60352 19.90645 13806 ft 331 kts 189°
2026-05-09 13:27 39.58115 19.90183 13541 ft 320 kts 199°
2026-05-09 13:27 39.55981 19.89536 13407 ft 311 kts 199°
2026-05-09 13:27 39.53925 19.88932 13193 ft 295 kts 199°
2026-05-09 13:28 39.51948 19.88356 12726 ft 288 kts 199°
2026-05-09 13:28 39.50000 19.87781 12201 ft 286 kts 199°
2026-05-09 13:28 39.48098 19.87215 11673 ft 283 kts 199°
2026-05-09 13:28 39.46183 19.86644 11202 ft 282 kts 199°
2026-05-09 13:29 39.44319 19.86089 10819 ft 281 kts 199°
2026-05-09 13:29 39.42420 19.85520 10445 ft 279 kts 198°
2026-05-09 13:29 39.41284 19.85180 10224 ft 281 kts 198°
2026-05-09 13:33 39.39759 19.84724 9835 ft 286 kts 198°
2026-05-09 13:33 39.37850 19.84158 9555 ft 281 kts 198°
2026-05-09 13:33 39.35935 19.83588 9160 ft 282 kts 198°
2026-05-09 13:34 39.34015 19.83017 8697 ft 284 kts 197°
2026-05-09 13:34 39.32075 19.82515 8280 ft 286 kts 187°
2026-05-09 13:34 39.30092 19.82875 7727 ft 296 kts 159°
2026-05-09 13:34 39.28412 19.84449 7185 ft 302 kts 128°
2026-05-09 13:35 39.27482 19.86785 6643 ft 291 kts 101°
2026-05-09 13:35 39.27300 19.89339 6072 ft 282 kts 90°
2026-05-09 13:35 39.27293 19.91825 5553 ft 272 kts 86°
2026-05-09 13:35 39.27569 19.94176 5025 ft 261 kts 64°
2026-05-09 13:36 39.28632 19.95960 4553 ft 247 kts 34°
2026-05-09 13:36 39.30165 19.96787 4128 ft 235 kts
2026-05-09 13:36 39.31714 19.97133 4060 ft 219 kts
2026-05-09 13:36 39.33178 19.97470 3978 ft 210 kts
2026-05-09 13:37 39.34607 19.97803 3881 ft 209 kts
2026-05-09 13:37 39.36033 19.98118 3790 ft 206 kts
2026-05-09 13:37 39.37458 19.98103 3700 ft 203 kts 355°
2026-05-09 13:37 39.38855 19.98018 3609 ft 197 kts 355°
2026-05-09 13:38 39.40199 19.97942 3531 ft 189 kts 356°
2026-05-09 13:38 39.41498 19.97869 3449 ft 186 kts 356°
2026-05-09 13:38 39.42772 19.97649 3361 ft 183 kts 342°
2026-05-09 13:38 39.43995 19.97191 3097 ft 184 kts 342°
2026-05-09 13:39 39.45221 19.96731 2830 ft 183 kts 342°
2026-05-09 13:39 39.46435 19.96275 2577 ft 178 kts 343°
2026-05-09 13:39 39.47581 19.95845 2350 ft 165 kts 342°
2026-05-09 13:39 39.48641 19.95447 2164 ft 150 kts 343°
2026-05-09 13:40 39.49607 19.95084 1964 ft 141 kts 342°
2026-05-09 13:40 39.50530 19.94737 1788 ft 136 kts 342°
2026-05-09 13:40 39.51420 19.94403 1612 ft 135 kts 342°
2026-05-09 13:40 39.52314 19.94067 1427 ft 133 kts 342°
2026-05-09 13:41 39.53202 19.93735 1255 ft 133 kts 341°
2026-05-09 13:41 39.54089 19.93403 1076 ft 133 kts 341°
2026-05-09 13:41 39.54963 19.93040 898 ft 132 kts 338°
2026-05-09 13:41 39.55827 19.92602 683 ft 133 kts 340°
2026-05-09 13:42 39.56431 19.92343 518 ft 137 kts 343°
2026-05-09 13:42 39.57350 19.92008 428 ft 138 kts 346°
2026-05-09 13:42 39.58286 19.91709 287 ft 139 kts 347°
2026-05-09 13:42 39.59238 19.91459 89 ft 140 kts 349°
2026-05-09 13:43 39.60144 19.91228 22 ft 118 kts 348°
2026-05-09 13:43 39.60743 19.91073 21 ft 54 kts 349°
2026-05-09 13:43 39.61007 19.91019 19 ft 15 kts 22°
2026-05-09 13:43 39.61056 19.91096 19 ft 6 kts 76°
2026-05-09 13:44 39.61030 19.91129 20 ft 5 kts 155°
2026-05-09 13:44 39.60996 19.91140 19 ft 5 kts 168°
2026-05-09 13:44 39.60933 19.91156 19 ft 12 kts 169°
2026-05-09 13:44 39.60848 19.91178 18 ft 12 kts 168°
2026-05-09 13:45 39.60766 19.91199 18 ft 11 kts 169°
2026-05-09 13:45 39.60692 19.91218 18 ft 10 kts 169°
2026-05-09 13:45 39.60652 19.91250 19 ft 5 kts 101°
2026-05-09 13:45 39.60657 19.91289 19 ft 4 kts 79°
2026-05-09 13:46 39.60662 19.91326 19 ft 4 kts 79°
2026-05-09 13:46 39.60667 19.91356 19 ft 2 kts 79°
2026-05-09 13:46 39.60668 19.91363 20 ft 0 kts 79°